CAPE
0 0 0 0 0 0 0 0 0 0 0 0 0 0 1 0 0 0 0 0 95 155 138 99 172 555 485 440 399 287 223 80 27 14 8 4 14 0 0 8 56 136 208 327 201 159 41 12 0
0 0 0 0 0 0 0 0 0 0 3 11 0 0 0 0 0 4 8 95 163 191 187 109 98 469 453 399 162 158 69 38 18 25 39 22 12 15 12 0 25 71 140 263 190 81 22 5 0
0 0 0 0 0 0 0 0 0 2 9 43 40 3 12 0 0 0 0 242 259 145 257 176 135 270 242 18 9 48 44 24 14 37 55 0 43 50 43 43 57 31 86 147 97 75 28 11 2
0 0 0 0 0 0 0 0 0 14 28 22 39 53 23 0 8 0 140 311 308 370 442 161 145 125 34 19 11 31 38 27 19 32 34 12 39 75 130 54 64 57 71 98 86 53 18 6 0
0 0 0 0 0 0 0 0 0 0 19 32 43 23 82 35 33 160 485 564 302 743 319 196 100 50 31 15 33 48 58 47 47 52 55 50 58 88 89 79 90 65 75 93 88 56 16 16 0
0 0 0 0 0 0 0 0 0 0 1 37 36 41 80 76 179 345 678 450 528 424 246 226 35 16 18 31 37 41 97 98 69 96 115 108 92 89 148 72 64 97 83 80 100 67 19 17 1
0 0 0 0 0 0 0 0 0 0 0 8 50 83 80 211 521 513 781 523 941 404 351 233 43 6 5 16 23 22 150 146 171 216 209 113 112 111 152 116 118 50 50 56 86 93 77 14 1
0 0 0 0 0 0 0 0 0 0 0 8 126 234 149 160 732 730 816 413 717 483 365 253 30 0 13 10 3 20 25 46 122 59 31 34 44 42 54 56 93 94 60 63 103 93 78 16 0
0 0 0 0 0 0 0 0 0 0 0 236 295 311 209 256 821 861 671 542 487 591 390 312 49 1 5 5 7 15 12 17 26 22 15 0 23 19 24 30 26 66 27 111 94 85 69 17 1
0 0 0 0 0 0 0 0 0 0 117 230 301 331 415 716 756 732 644 560 494 429 549 571 132 18 5 0 0 5 7 18 12 3 0 0 0 3 12 22 21 22 34 88 99 73 15 1 0
0 0 0 0 0 0 0 0 0 0 81 55 106 279 983 836 622 706 548 564 593 443 458 263 124 42 2 2 3 0 0 6 13 3 0 0 0 2 4 7 0 0 22 30 2 1 1 0 0
0 0 0 0 0 0 0 3 1 0 39 140 186 208 781 892 1106 778 606 393 571 506 394 261 147 84 33 21 18 34 0 0 0 0 0 0 5 1 1 0 0 0 0 0 0 0 0 0 0
0 0 0 0 0 0 0 0 20 1 18 70 120 144 360 762 946 571 557 369 456 562 483 337 341 217 98 39 23 4 1 0 0 0 0 0 1 5 1 0 0 0 0 0 0 0 0 0 0
0 0 0 0 0 0 0 0 0 1 3 42 112 125 125 177 289 408 404 399 476 381 506 442 259 204 148 154 12 0 0 0 0 0 0 0 1 3 1 0 0 0 0 0 0 0 3 11 15
0 0 0 0 0 0 0 0 0 0 0 17 23 27 58 56 155 142 120 359 306 297 347 356 368 259 175 126 150 0 0 51 0 0 0 0 0 2 0 0 0 0 0 0 0 0 0 0 0
0 0 0 0 0 0 0 0 0 0 0 0 13 5 0 20 26 49 73 222 145 114 78 237 287 260 194 226 162 102 1 21 50 0 0 0 0 1 0 0 0 0 0 0 0 0 0 0 0
0 0 0 0 0 0 0 0 0 0 0 0 0 19 25 5 2 2 7 0 9 99 104 108 185 210 204 229 220 78 23 14 42 114 0 0 0 0 0 0 0 0 0 0 0 0 0 0 0
0 0 0 0 0 0 0 0 0 0 0 0 0 0 1 21 25 21 0 0 0 0 107 151 176 167 186 96 79 113 84 54 18 152 190 69 0 0 0 0 0 0 0 0 0 0 0 0 0
0 0 0 0 0 0 0 0 0 0 0 0 0 0 0 0 3 20 10 0 0 0 0 25 50 107 162 106 109 98 150 25 20 42 173 125 51 2 0 0 0 0 2 1 0 1 2 3 0
0 0 0 0 0 0 0 0 0 0 0 0 0 0 0 0 0 0 0 0 0 0 0 0 3 57 77 134 83 85 59 121 76 71 68 80 90 76 1 0 0 0 0 4 11 4 3 5 4
0 0 0 0 0 0 0 0 0 0 0 0 0 0 0 0 0 0 0 0 0 0 0 0 0 13 94 124 175 69 84 83 28 14 15 85 54 72 52 11 1 0 0 0 0 0 1 4 2
0 0 0 0 0 0 0 0 0 0 0 0 0 0 0 0 0 0 0 0 0 0 0 0 0 0 11 77 49 119 127 61 32 24 20 28 30 30 55 43 36 20 0 0 0 0 0 0 1
0 0 0 0 0 0 0 0 0 0 0 0 0 0 0 0 0 0 0 0 0 0 0 0 0 0 0 21 43 47 103 154 147 120 107 54 48 5 57 46 43 26 43 49 43 1 0 0 0
0 0 0 0 0 0 0 0 0 0 0 0 0 0 0 0 0 0 0 0 0 0 0 0 0 0 0 0 4 18 107 133 153 212 106 110 94 85 48 49 53 41 26 51 42 39 38 63 35
0 0 0 0 0 0 0 0 0 0 0 0 0 0 0 0 0 0 0 0 0 0 0 0 0 0 0 0 0 36 128 171 207 138 140 172 88 98 114 35 4 63 63 62 60 65 61 109 73
0 0 0 0 0 0 0 0 0 0 0 0 0 0 0 0 0 0 0 0 0 0 0 0 0 0 0 0 0 0 34 67 123 190 136 124 81 74 77 100 105 80 44 39 50 51 63 43 54
0 0 0 0 0 0 0 0 0 0 0 0 0 0 0 0 0 0 0 0 0 0 0 0 0 0 0 0 0 0 0 0 49 102 123 139 203 85 52 52 40 34 34 61 67 61 46 28 60
0 0 0 0 0 0 0 0 0 0 0 0 0 0 0 0 0 0 0 0 0 0 0 0 0 0 0 0 0 0 0 0 0 17 118 162 134 272 35 32 40 25 13 46 97 57 20 19 12
0 0 0 0 0 0 0 0 0 0 0 0 0 0 0 0 0 0 0 0 0 0 0 0 0 0 0 0 0 0 0 0 0 0 26 278 172 73 172 101 74 83 65 74 95 66 70 61 30
0 0 0 0 0 0 0 0 0 0 0 0 0 0 0 0 0 0 0 0 0 0 0 0 0 0 0 0 0 0 0 1 4 9 65 185 275 230 188 196 75 83 55 39 153 51 56 10 46
CIN
-0 -0 -0 -0 -0 -0 -0 -0 -0 -0 -0 -0 -0 -0 -7 -0 -0 -0 -0 -0 -166 -85 -65 -51 -6 -0 -2 -0 -0 -0 -1 -36 -0 -0 -0 -0 -25 -0 -0 -2 -53 -49 -17 -1 -14 -15 -0 -0 -0
-0 -0 -0 -0 -0 -0 -0 -0 -0 -0 -2 -4 -0 -0 -0 -0 -0 -52 -82 -187 -90 -61 -46 -64 -36 -0 -0 -0 -10 -6 -75 -4 -0 -0 -109 -0 -0 -0 -0 -0 -1 -105 -40 -11 -31 -44 -6 -0 -0
-0 -0 -0 -0 -0 -0 -0 -0 -0 -7 -4 -3 -1 -41 -132 -0 -0 -0 -0 -130 -73 -65 -30 -33 -36 -1 -1 -1 -0 -20 -1 -0 -0 -0 -285 -0 -0 -46 -0 -0 -68 -0 -88 -46 -21 -0 -10 -0 -0
-0 -0 -0 -0 -0 -0 -0 -0 -0 -24 -27 -51 -14 -72 -138 -0 -298 -0 -211 -110 -66 -13 -2 -21 -35 -19 -53 -0 -0 -0 -0 -0 -0 -0 -0 -0 -0 -212 -139 -0 -95 -26 -0 -1 -0 -0 -15 -0 -0
-0 -0 -0 -0 -0 -0 -0 -0 -0 -0 -14 -13 -63 -65 -91 -90 -299 -252 -109 -60 -75 -0 -2 -10 -45 -69 -81 -0 -0 -114 -85 -40 -0 -52 -16 -12 -128 -207 -143 -47 -194 -30 -0 -0 -0 -0 -13 -35 -0
-0 -0 -0 -0 -0 -0 -0 -0 -0 -0 -2 -6 -6 -60 -57 -36 -250 -164 -73 -75 -25 -4 -5 -4 -21 -42 -66 -64 -3 -127 -34 -38 -138 -121 -123 -159 -193 -184 -118 -0 -1 -84 -61 -0 -0 -0 -6 -25 -0
-0 -0 -0 -0 -0 -0 -0 -0 -0 -0 -0 -3 -4 -50 -55 -210 -109 -85 -41 -62 -0 -3 -0 -4 -25 -2 -7 -16 -17 -14 -9 -8 -8 -12 -26 -143 -182 -173 -136 -145 -136 -1 -0 -1 -2 -0 -0 -16 -0
-0 -0 -0 -0 -0 -0 -0 -0 -0 -0 -0 -163 -95 -27 -40 -35 -65 -34 -19 -66 -2 -1 -0 -2 -48 -0 -4 -11 -11 -19 -7 -97 -16 -152 -13 -14 -11 -6 -12 -3 -1 -0 -1 -1 -1 -0 -0 -8 -1
-0 -0 -0 -0 -0 -0 -0 -0 -0 -0 -0 -83 -82 -66 -56 -188 -46 -27 -34 -32 -22 -0 -0 -0 -31 -39 -0 -4 -17 -14 -18 -11 -7 -18 -19 -0 -9 -9 -0 -13 -23 -5 -19 -2 -0 -1 -1 -6 -2
-0 -0 -0 -0 -0 -0 -0 -0 -0 -0 -52 -63 -75 -57 -106 -86 -62 -27 -44 -28 -16 -2 -0 -0 -2 -29 -17 -0 -0 -25 -22 -6 -3 -15 -1 -0 -0 -6 -5 -22 -32 -42 -12 -0 -0 -2 -1 -0 -0
-0 -0 -0 -0 -0 -0 -0 -0 -0 -0 -15 -25 -52 -74 -45 -47 -55 -15 -20 -26 -2 -3 -0 -0 -0 -9 -19 -58 -19 -0 -0 -7 -1 -0 -0 -0 -0 -0 -7 -29 -1 -1 -21 -13 -0 -1 -1 -0 -0
-0 -0 -0 -0 -0 -0 -0 -34 -6 -0 -5 -4 -95 -101 -51 -23 -0 -0 -4 -6 -12 -4 -0 -0 -0 -2 -7 -24 -21 -6 -0 -0 -0 -0 -0 -0 -0 -0 -0 -0 -0 -0 -0 -0 -0 -0 -0 -0 -0
-0 -0 -0 -0 -0 -0 -0 -0 -32 -15 -22 -1 -113 -116 -85 -19 -0 -5 -0 -3 -3 -0 -1 -4 -0 -1 -2 -3 -38 -62 -46 -0 -0 -0 -0 -0 -0 -0 -0 -0 -0 -0 -0 -0 -0 -0 -0 -0 -0
-0 -0 -0 -0 -0 -0 -0 -0 -0 -33 -26 -20 -78 -76 -106 -68 -26 -11 -10 -12 -6 -11 -0 -1 -6 -3 -0 -0 -28 -0 -0 -0 -0 -0 -0 -0 -0 -0 -0 -0 -0 -0 -0 -0 -0 -0 -8 -5 -4
-0 -0 -0 -0 -0 -0 -0 -0 -0 -0 -0 -6 -4 -16 -58 -35 -10 -0 -1 -5 -19 -26 -13 -12 -2 -5 -3 -0 -0 -0 -0 -4 -0 -0 -0 -0 -0 -0 -0 -0 -0 -0 -0 -0 -0 -0 -0 -0 -0
-0 -0 -0 -0 -0 -0 -0 -0 -0 -0 -0 -0 -13 -11 -11 -43 -16 -28 -38 -14 -11 -34 -33 -9 -5 -7 -4 -0 -0 -2 -5 -24 -12 -0 -0 -0 -0 -0 -0 -0 -0 -0 -0 -0 -0 -0 -0 -0 -0
-0 -0 -0 -0 -0 -0 -0 -0 -0 -0 -0 -0 -0 -7 -7 -16 -30 -20 -40 -2 -26 -33 -12 -22 -17 -4 -4 -0 -0 -2 -8 -2 -0 -0 -0 -0 -0 -0 -0 -0 -0 -0 -0 -0 -0 -0 -0 -0 -0
-0 -0 -0 -0 -0 -0 -0 -0 -0 -0 -0 -0 -0 -0 -2 -3 -8 -20 -2 -0 -0 -0 -44 -8 -10 -92 -4 -0 -0 -0 -3 -1 -0 -0 -0 -6 -0 -0 -0 -0 -0 -0 -0 -0 -0 -0 -0 -0 -0
-0 -0 -0 -0 -0 -0 -0 -0 -0 -0 -0 -0 -0 -0 -0 -0 -10 -20 -27 -2 -0 -0 -0 -92 -46 -2 -25 -1 -0 -0 -0 -5 -7 -3 -0 -0 -6 -0 -0 -0 -0 -0 -5 -3 -0 -0 -0 -0 -0
-0 -0 -0 -0 -0 -0 -0 -0 -0 -0 -0 -0 -0 -0 -0 -0 -0 -0 -0 -0 -0 -0 -0 -0 -0 -42 -16 -0 -18 -6 -0 -0 -0 -2 -4 -4 -0 -0 -1 -0 -0 -0 -0 -2 -4 -0 -0 -0 -0
-0 -0 -0 -0 -0 -0 -0 -0 -0 -0 -0 -0 -0 -0 -0 -0 -0 -0 -0 -0 -0 -0 -0 -0 -0 -18 -6 -1 -1 -2 -0 -0 -6 -3 -5 -0 -1 -0 -0 -1 -0 -0 -0 -0 -0 -0 -0 -3 -0
-0 -0 -0 -0 -0 -0 -0 -0 -0 -0 -0 -0 -0 -0 -0 -0 -0 -0 -0 -0 -0 -0 -0 -0 -0 -0 -15 -4 -9 -0 -4 -0 -0 -12 -15 -22 -3 -1 -0 -1 -0 -0 -0 -0 -0 -0 -0 -1 -3
-0 -0 -0 -0 -0 -0 -0 -0 -0 -0 -0 -0 -0 -0 -0 -0 -0 -0 -0 -0 -0 -0 -0 -0 -0 -0 -0 -23 -6 -6 -0 -0 -2 -0 -0 -2 -7 -2 -2 -1 -0 -0 -0 -1 -2 -0 -0 -1 -0
-0 -0 -0 -0 -0 -0 -0 -0 -0 -0 -0 -0 -0 -0 -0 -0 -0 -0 -0 -0 -0 -0 -0 -0 -0 -0 -0 -0 -10 -18 -0 -0 -0 -0 -1 -0 -0 -0 -4 -1 -2 -4 -1 -0 -0 -0 -0 -0 -7
-0 -0 -0 -0 -0 -0 -0 -0 -0 -0 -0 -0 -0 -0 -0 -0 -0 -0 -0 -0 -0 -0 -0 -0 -0 -0 -0 -0 -0 -21 -5 -0 -1 -0 -2 -0 -0 -0 -3 -0 -10 -0 -1 -0 -0 -0 -0 -0 -0
-0 -0 -0 -0 -0 -0 -0 -0 -0 -0 -0 -0 -0 -0 -0 -0 -0 -0 -0 -0 -0 -0 -0 -0 -0 -0 -0 -0 -0 -0 -16 -11 -2 -2 -16 -14 -7 -18 -0 -0 -0 -1 -0 -0 -0 -0 -0 -0 -1
-0 -0 -0 -0 -0 -0 -0 -0 -0 -0 -0 -0 -0 -0 -0 -0 -0 -0 -0 -0 -0 -0 -0 -0 -0 -0 -0 -0 -0 -0 -0 -0 -2 -11 -8 -5 -3 -25 -8 -10 -13 -26 -7 -0 -0 -0 -2 -1 -0
-0 -0 -0 -0 -0 -0 -0 -0 -0 -0 -0 -0 -0 -0 -0 -0 -0 -0 -0 -0 -0 -0 -0 -0 -0 -0 -0 -0 -0 -0 -0 -0 -0 -10 -11 -11 -11 -0 -13 -24 -15 -30 -29 -7 -4 -2 -1 -3 -8
-0 -0 -0 -0 -0 -0 -0 -0 -0 -0 -0 -0 -0 -0 -0 -0 -0 -0 -0 -0 -0 -0 -0 -0 -0 -0 -0 -0 -0 -0 -0 -0 -0 -0 -42 -0 -0 -14 -0 -11 -13 -11 -2 -6 -7 -0 -9 -6 -2
-0 -0 -0 -0 -0 -0 -0 -0 -0 -0 -0 -0 -0 -0 -0 -0 -0 -0 -0 -0 -0 -0 -0 -0 -0 -0 -0 -0 -0 -0 -0 -0 -0 -0 -21 -1 -0 -0 -0 -0 -8 -7 -5 -11 -0 -0 -1 -0 -7
Wind_Speed
nan nan nan nan nan nan nan nan nan nan nan nan nan nan nan nan nan nan nan nan nan 15 12 nan 10 11 13 15 14 13 14 nan nan nan nan nan nan nan nan nan nan 12 13 19 21 23 nan nan nan
nan nan nan nan nan nan nan nan nan nan nan nan nan nan nan nan nan nan nan nan 20 16 13 12 nan 13 14 13 14 16 nan nan nan nan nan nan nan nan nan nan nan nan 12 17 20 nan nan nan nan
nan nan nan nan nan nan nan nan nan nan nan nan nan nan nan nan nan nan nan 20 21 18 15 15 15 17 15 nan nan nan nan nan nan nan nan nan nan nan nan nan nan nan nan 15 nan nan nan nan nan
nan nan nan nan nan nan nan nan nan nan nan nan nan nan nan nan nan nan 23 22 22 19 16 17 16 18 nan nan nan nan nan nan nan nan nan nan nan nan 15 nan nan nan nan nan nan nan nan nan nan
nan nan nan nan nan nan nan nan nan nan nan nan nan nan nan nan nan 23 26 24 25 21 16 18 18 nan nan nan nan nan nan nan nan nan nan nan nan nan nan nan nan nan nan nan nan nan nan nan nan
nan nan nan nan nan nan nan nan nan nan nan nan nan nan nan nan 26 23 23 27 26 24 18 17 nan nan nan nan nan nan nan nan nan nan 19 19 nan nan 18 nan nan nan nan nan 13 nan nan nan nan
nan nan nan nan nan nan nan nan nan nan nan nan nan nan nan 26 27 26 24 28 27 27 22 18 nan nan nan nan nan nan 14 15 17 23 24 22 19 18 21 16 15 nan nan nan nan nan nan nan nan
nan nan nan nan nan nan nan nan nan nan nan nan 27 22 17 21 28 32 28 28 27 28 27 21 nan nan nan nan nan nan nan nan 23 nan nan nan nan nan nan nan nan nan nan nan 11 nan nan nan nan
nan nan nan nan nan nan nan nan nan nan nan 35 29 24 21 28 29 33 33 27 27 27 28 25 nan nan nan nan nan nan nan nan nan nan nan nan nan nan nan nan nan nan nan 14 nan nan nan nan nan
nan nan nan nan nan nan nan nan nan nan 36 35 31 30 28 27 26 28 29 29 25 26 27 29 24 nan nan nan nan nan nan nan nan nan nan nan nan nan nan nan nan nan nan nan nan nan nan nan nan
nan nan nan nan nan nan nan nan nan nan nan nan 28 25 26 25 25 27 28 28 30 27 27 31 30 nan nan nan nan nan nan nan nan nan nan nan nan nan nan nan nan nan nan nan nan nan nan nan nan
nan nan nan nan nan nan nan nan nan nan nan 36 29 28 28 27 24 25 30 26 30 32 30 29 32 nan nan nan nan nan nan nan nan nan nan nan nan nan nan nan nan nan nan nan nan nan nan nan nan
nan nan nan nan nan nan nan nan nan nan nan nan 45 39 32 30 30 29 27 37 32 24 33 27 32 31 nan nan nan nan nan nan nan nan nan nan nan nan nan nan nan nan nan nan nan nan nan nan nan
nan nan nan nan nan nan nan nan nan nan nan nan 40 39 40 35 30 31 27 30 31 33 29 36 30 31 33 30 nan nan nan nan nan nan nan nan nan nan nan nan nan nan nan nan nan nan nan nan nan
nan nan nan nan nan nan nan nan nan nan nan nan nan nan nan nan 47 45 35 29 24 30 32 33 36 31 32 31 29 nan nan nan nan nan nan nan nan nan nan nan nan nan nan nan nan nan nan nan nan
nan nan nan nan nan nan nan nan nan nan nan nan nan nan nan nan nan nan nan 40 26 27 nan 31 29 34 27 29 32 30 nan nan nan nan nan nan nan nan nan nan nan nan nan nan nan nan nan nan nan
nan nan nan nan nan nan nan nan nan nan nan nan nan nan nan nan nan nan nan nan nan nan 29 15 29 30 27 23 29 nan nan nan nan 31 nan nan nan nan nan nan nan nan nan nan nan nan nan nan nan
nan nan nan nan nan nan nan nan nan nan nan nan nan nan nan nan nan nan nan nan nan nan 50 47 20 16 21 nan nan 34 nan nan nan 34 31 nan nan nan nan nan nan nan nan nan nan nan nan nan nan
nan nan nan nan nan nan nan nan nan nan nan nan nan nan nan nan nan nan nan nan nan nan nan nan nan 37 24 30 37 nan 35 nan nan nan 36 35 nan nan nan nan nan nan nan nan nan nan nan nan nan
nan nan nan nan nan nan nan nan nan nan nan nan nan nan nan nan nan nan nan nan nan nan nan nan nan nan nan 35 nan nan nan 42 nan nan nan nan nan nan nan nan nan nan nan nan nan nan nan nan nan
nan nan nan nan nan nan nan nan nan nan nan nan nan nan nan nan nan nan nan nan nan nan nan nan nan nan nan 42 39 nan nan nan nan nan nan nan nan nan nan nan nan nan nan nan nan nan nan nan nan
nan nan nan nan nan nan nan nan nan nan nan nan nan nan nan nan nan nan nan nan nan nan nan nan nan nan nan nan nan 37 37 nan nan nan nan nan nan nan nan nan nan nan nan nan nan nan nan nan nan
nan nan nan nan nan nan nan nan nan nan nan nan nan nan nan nan nan nan nan nan nan nan nan nan nan nan nan nan nan nan 35 39 39 37 32 nan nan nan nan nan nan nan nan nan nan nan nan nan nan
nan nan nan nan nan nan nan nan nan nan nan nan nan nan nan nan nan nan nan nan nan nan nan nan nan nan nan nan nan nan 47 41 40 38 37 37 nan nan nan nan nan nan nan nan nan nan nan nan nan
nan nan nan nan nan nan nan nan nan nan nan nan nan nan nan nan nan nan nan nan nan nan nan nan nan nan nan nan nan nan 50 47 42 38 40 39 nan nan 33 nan nan nan nan nan nan nan nan 19 nan
nan nan nan nan nan nan nan nan nan nan nan nan nan nan nan nan nan nan nan nan nan nan nan nan nan nan nan nan nan nan nan nan 49 44 43 42 nan nan nan 40 34 nan nan nan nan nan nan nan nan
nan nan nan nan nan nan nan nan nan nan nan nan nan nan nan nan nan nan nan nan nan nan nan nan nan nan nan nan nan nan nan nan nan 47 47 47 42 nan nan nan nan nan nan nan nan nan nan nan nan
nan nan nan nan nan nan nan nan nan nan nan nan nan nan nan nan nan nan nan nan nan nan nan nan nan nan nan nan nan nan nan nan nan nan 44 48 47 49 nan nan nan nan nan nan nan nan nan nan nan
nan nan nan nan nan nan nan nan nan nan nan nan nan nan nan nan nan nan nan nan nan nan nan nan nan nan nan nan nan nan nan nan nan nan nan 51 47 nan 48 43 nan nan nan nan nan nan nan nan nan
nan nan nan nan nan nan nan nan nan nan nan nan nan nan nan nan nan nan nan nan nan nan nan nan nan nan nan nan nan nan nan nan nan nan nan 63 66 61 57 58 nan nan nan nan 49 nan nan nan nan
Wind_Direction
nan nan nan nan nan nan nan nan nan nan nan nan nan nan nan nan nan nan nan nan nan 278 267 nan 282 246 234 233 225 218 222 nan nan nan nan nan nan nan nan nan nan 271 275 273 278 276 nan nan nan
nan nan nan nan nan nan nan nan nan nan nan nan nan nan nan nan nan nan nan nan 275 268 252 242 nan 228 232 230 235 230 nan nan nan nan nan nan nan nan nan nan nan nan 288 285 281 nan nan nan nan
nan nan nan nan nan nan nan nan nan nan nan nan nan nan nan nan nan nan nan 273 260 257 250 235 248 237 221 nan nan nan nan nan nan nan nan nan nan nan nan nan nan nan nan 295 nan nan nan nan nan
nan nan nan nan nan nan nan nan nan nan nan nan nan nan nan nan nan nan 273 266 255 247 256 253 260 244 nan nan nan nan nan nan nan nan nan nan nan nan 266 nan nan nan nan nan nan nan nan nan nan
nan nan nan nan nan nan nan nan nan nan nan nan nan nan nan nan nan 272 278 265 253 242 246 262 264 nan nan nan nan nan nan nan nan nan nan nan nan nan nan nan nan nan nan nan nan nan nan nan nan
nan nan nan nan nan nan nan nan nan nan nan nan nan nan nan nan 264 275 271 265 253 249 242 253 nan nan nan nan nan nan nan nan nan nan 223 234 nan nan 263 nan nan nan nan nan 306 nan nan nan nan
nan nan nan nan nan nan nan nan nan nan nan nan nan nan nan 243 256 263 260 255 252 249 238 239 nan nan nan nan nan nan 255 251 234 229 233 229 242 257 256 259 263 nan nan nan nan nan nan nan nan
nan nan nan nan nan nan nan nan nan nan nan nan 244 249 253 246 251 255 251 254 250 244 233 235 nan nan nan nan nan nan nan nan 240 nan nan nan nan nan nan nan nan nan nan nan 286 nan nan nan nan
nan nan nan nan nan nan nan nan nan nan nan 237 239 231 220 265 251 253 258 247 248 240 234 236 nan nan nan nan nan nan nan nan nan nan nan nan nan nan nan nan nan nan nan 260 nan nan nan nan nan
nan nan nan nan nan nan nan nan nan nan 233 228 234 226 249 258 261 251 261 259 250 246 233 233 234 nan nan nan nan nan nan nan nan nan nan nan nan nan nan nan nan nan nan nan nan nan nan nan nan
nan nan nan nan nan nan nan nan nan nan nan nan 224 235 242 246 244 245 251 265 244 257 235 230 229 nan nan nan nan nan nan nan nan nan nan nan nan nan nan nan nan nan nan nan nan nan nan nan nan
nan nan nan nan nan nan nan nan nan nan nan 216 217 243 235 242 243 248 243 239 256 251 244 235 231 nan nan nan nan nan nan nan nan nan nan nan nan nan nan nan nan nan nan nan nan nan nan nan nan
nan nan nan nan nan nan nan nan nan nan nan nan 225 233 238 236 240 239 241 238 253 276 234 238 234 230 nan nan nan nan nan nan nan nan nan nan nan nan nan nan nan nan nan nan nan nan nan nan nan
nan nan nan nan nan nan nan nan nan nan nan nan 229 229 225 230 229 227 230 245 248 248 249 234 235 234 233 232 nan nan nan nan nan nan nan nan nan nan nan nan nan nan nan nan nan nan nan nan nan
nan nan nan nan nan nan nan nan nan nan nan nan nan nan nan nan 214 218 216 223 231 232 236 260 248 224 231 235 237 nan nan nan nan nan nan nan nan nan nan nan nan nan nan nan nan nan nan nan nan
nan nan nan nan nan nan nan nan nan nan nan nan nan nan nan nan nan nan nan 212 207 214 nan 240 245 235 231 232 236 237 nan nan nan nan nan nan nan nan nan nan nan nan nan nan nan nan nan nan nan
nan nan nan nan nan nan nan nan nan nan nan nan nan nan nan nan nan nan nan nan nan nan 212 207 238 229 227 230 235 nan nan nan nan 247 nan nan nan nan nan nan nan nan nan nan nan nan nan nan nan
nan nan nan nan nan nan nan nan nan nan nan nan nan nan nan nan nan nan nan nan nan nan 218 224 207 220 228 nan nan 233 nan nan nan 246 249 nan nan nan nan nan nan nan nan nan nan nan nan nan nan
nan nan nan nan nan nan nan nan nan nan nan nan nan nan nan nan nan nan nan nan nan nan nan nan nan 213 227 240 229 nan 240 nan nan nan 249 251 nan nan nan nan nan nan nan nan nan nan nan nan nan
nan nan nan nan nan nan nan nan nan nan nan nan nan nan nan nan nan nan nan nan nan nan nan nan nan nan nan 235 nan nan nan 234 nan nan nan nan nan nan nan nan nan nan nan nan nan nan nan nan nan
nan nan nan nan nan nan nan nan nan nan nan nan nan nan nan nan nan nan nan nan nan nan nan nan nan nan nan 219 236 nan nan nan nan nan nan nan nan nan nan nan nan nan nan nan nan nan nan nan nan
nan nan nan nan nan nan nan nan nan nan nan nan nan nan nan nan nan nan nan nan nan nan nan nan nan nan nan nan nan 241 254 nan nan nan nan nan nan nan nan nan nan nan nan nan nan nan nan nan nan
nan nan nan nan nan nan nan nan nan nan nan nan nan nan nan nan nan nan nan nan nan nan nan nan nan nan nan nan nan nan 253 256 261 266 270 nan nan nan nan nan nan nan nan nan nan nan nan nan nan
nan nan nan nan nan nan nan nan nan nan nan nan nan nan nan nan nan nan nan nan nan nan nan nan nan nan nan nan nan nan 237 257 259 263 271 269 nan nan nan nan nan nan nan nan nan nan nan nan nan
nan nan nan nan nan nan nan nan nan nan nan nan nan nan nan nan nan nan nan nan nan nan nan nan nan nan nan nan nan nan 241 243 261 262 262 268 nan nan 274 nan nan nan nan nan nan nan nan 294 nan
nan nan nan nan nan nan nan nan nan nan nan nan nan nan nan nan nan nan nan nan nan nan nan nan nan nan nan nan nan nan nan nan 251 258 256 258 nan nan nan 275 277 nan nan nan nan nan nan nan nan
nan nan nan nan nan nan nan nan nan nan nan nan nan nan nan nan nan nan nan nan nan nan nan nan nan nan nan nan nan nan nan nan nan 253 262 261 262 nan nan nan nan nan nan nan nan nan nan nan nan
nan nan nan nan nan nan nan nan nan nan nan nan nan nan nan nan nan nan nan nan nan nan nan nan nan nan nan nan nan nan nan nan nan nan 256 260 260 262 nan nan nan nan nan nan nan nan nan nan nan
nan nan nan nan nan nan nan nan nan nan nan nan nan nan nan nan nan nan nan nan nan nan nan nan nan nan nan nan nan nan nan nan nan nan nan 252 258 nan 262 265 nan nan nan nan nan nan nan nan nan
nan nan nan nan nan nan nan nan nan nan nan nan nan nan nan nan nan nan nan nan nan nan nan nan nan nan nan nan nan nan nan nan nan nan nan 251 250 248 251 250 nan nan nan nan 256 nan nan nan nan